,,PressureMeas_1m,,PRMeasQMR101_1,,RHStat155_1m_1,,SRMeasQMS101R_1m,,TAStat155_1m_1,,GenWind_1,,GenWind_1,
2017-09-13, 07:00:06,VALID,918.704,VALID,0.0,VALID,98.974,VALID,111.628,VALID,19.368,VALID,142.0,VALID,0.256,
2017-09-13, 07:01:06,VALID,918.724,VALID,0.0,VALID,98.934,VALID,116.617,VALID,19.37,VALID,146.0,VALID,0.327,
2017-09-13, 07:02:06,VALID,918.725,VALID,0.0,VALID,98.944,VALID,119.469,VALID,19.398,VALID,147.0,VALID,0.07,
2017-09-13, 07:03:06,VALID,918.736,VALID,0.0,VALID,98.953,VALID,122.234,VALID,19.474,VALID,167.0,VALID,0.059,
2017-09-13, 07:04:06,VALID,918.733,VALID,0.0,VALID,98.956,VALID,141.327,VALID,19.564,VALID,155.0,VALID,0.097,
2017-09-13, 07:05:06,VALID,918.746,VALID,0.0,VALID,98.914,VALID,155.659,VALID,19.531,VALID,153.0,VALID,0.383,
2017-09-13, 07:06:06,VALID,918.751,VALID,0.0,VALID,98.923,VALID,175.258,VALID,19.535,VALID,149.0,VALID,0.218,
2017-09-13, 07:07:06,VALID,918.759,VALID,0.0,VALID,98.944,VALID,190.006,VALID,19.714,VALID,146.0,VALID,0.152,
2017-09-13, 07:08:06,VALID,918.768,VALID,0.0,VALID,98.913,VALID,191.587,VALID,19.79,VALID,149.0,VALID,0.623,
2017-09-13, 07:09:06,VALID,918.766,VALID,0.0,VALID,98.902,VALID,180.772,VALID,19.796,VALID,158.0,VALID,0.493,
2017-09-13, 07:10:06,VALID,918.788,VALID,0.0,VALID,98.893,VALID,172.052,VALID,19.786,VALID,151.0,VALID,0.529,
2017-09-13, 07:11:06,VALID,918.784,VALID,0.0,VALID,98.884,VALID,178.125,VALID,19.795,VALID,156.0,VALID,0.451,
2017-09-13, 07:12:06,VALID,918.79,VALID,0.0,VALID,98.878,VALID,185.618,VALID,19.84,VALID,151.0,VALID,0.394,
2017-09-13, 07:13:06,VALID,918.794,VALID,0.0,VALID,98.871,VALID,175.122,VALID,19.876,VALID,146.0,VALID,0.67,
2017-09-13, 07:14:06,VALID,918.797,VALID,0.0,VALID,98.875,VALID,155.302,VALID,19.888,VALID,147.0,VALID,0.655,
2017-09-13, 07:15:06,VALID,918.795,VALID,0.0,VALID,98.812,VALID,149.029,VALID,19.817,VALID,137.0,VALID,0.855,
2017-09-13, 07:16:06,VALID,918.798,VALID,0.0,VALID,98.802,VALID,144.5,VALID,19.825,VALID,156.0,VALID,0.769,
2017-09-13, 07:17:06,VALID,918.807,VALID,0.0,VALID,98.795,VALID,135.622,VALID,19.851,VALID,148.0,VALID,0.745,
2017-09-13, 07:18:06,VALID,918.818,VALID,0.0,VALID,98.792,VALID,132.703,VALID,19.911,VALID,141.0,VALID,0.62,
2017-09-13, 07:19:06,VALID,918.831,VALID,0.0,VALID,98.795,VALID,134.371,VALID,19.966,VALID,129.0,VALID,0.738,
2017-09-13, 07:20:06,VALID,918.875,VALID,0.0,VALID,98.773,VALID,137.946,VALID,19.991,VALID,119.0,VALID,0.869,
2017-09-13, 07:21:06,VALID,918.88,VALID,0.0,VALID,98.765,VALID,143.959,VALID,19.997,VALID,85.0,VALID,1.238,
2017-09-13, 07:22:06,VALID,918.898,VALID,0.0,VALID,98.606,VALID,148.545,VALID,19.791,VALID,100.0,VALID,1.421,
2017-09-13, 07:23:06,VALID,918.903,VALID,0.0,VALID,98.476,VALID,156.638,VALID,19.682,VALID,113.0,VALID,1.41,
2017-09-13, 07:24:06,VALID,918.9,VALID,0.0,VALID,98.497,VALID,153.05,VALID,19.764,VALID,114.0,VALID,1.189,
2017-09-13, 07:25:06,VALID,918.896,VALID,0.0,VALID,98.522,VALID,161.296,VALID,19.853,VALID,112.0,VALID,1.205,
2017-09-13, 07:26:06,VALID,918.882,VALID,0.0,VALID,98.506,VALID,161.114,VALID,19.865,VALID,111.0,VALID,1.566,
2017-09-13, 07:27:06,VALID,918.874,VALID,0.0,VALID,98.263,VALID,163.653,VALID,19.697,VALID,104.0,VALID,1.499,
2017-09-13, 07:28:06,VALID,918.868,VALID,0.0,VALID,98.154,VALID,166.319,VALID,19.672,VALID,96.0,VALID,0.961,
2017-09-13, 07:29:06,VALID,918.867,VALID,0.0,VALID,98.255,VALID,146.335,VALID,19.744,VALID,89.0,VALID,0.917,
2017-09-13, 07:30:06,VALID,918.869,VALID,0.0,VALID,98.331,VALID,141.972,VALID,19.792,VALID,94.0,VALID,1.048,
2017-09-13, 07:31:06,VALID,918.876,VALID,0.0,VALID,98.225,VALID,143.645,VALID,19.728,VALID,85.0,VALID,1.238,
2017-09-13, 07:32:06,VALID,918.892,VALID,0.0,VALID,98.22,VALID,144.402,VALID,19.752,VALID,90.0,VALID,0.935,
2017-09-13, 07:33:06,VALID,918.893,VALID,0.0,VALID,98.303,VALID,146.885,VALID,19.829,VALID,95.0,VALID,0.91,
2017-09-13, 07:34:06,VALID,918.898,VALID,0.0,VALID,98.287,VALID,151.548,VALID,19.847,VALID,119.0,VALID,1.046,
2017-09-13, 07:35:06,VALID,918.913,VALID,0.0,VALID,98.152,VALID,155.022,VALID,19.813,VALID,128.0,VALID,1.118,
2017-09-13, 07:36:06,VALID,918.913,VALID,0.0,VALID,98.08,VALID,160.893,VALID,19.857,VALID,133.0,VALID,0.696,
2017-09-13, 07:37:06,VALID,918.914,VALID,0.0,VALID,98.122,VALID,164.018,VALID,19.934,VALID,144.0,VALID,0.687,
2017-09-13, 07:38:06,VALID,918.919,VALID,0.0,VALID,98.097,VALID,166.674,VALID,19.979,VALID,152.0,VALID,0.852,
2017-09-13, 07:39:06,VALID,918.904,VALID,0.0,VALID,97.962,VALID,183.2,VALID,19.973,VALID,148.0,VALID,1.025,
2017-09-13, 07:40:06,VALID,918.897,VALID,0.0,VALID,97.764,VALID,184.66,VALID,19.941,VALID,145.0,VALID,1.051,
2017-09-13, 07:41:06,VALID,918.895,VALID,0.0,VALID,97.552,VALID,186.52,VALID,19.909,VALID,137.0,VALID,1.047,
2017-09-13, 07:42:06,VALID,918.893,VALID,0.0,VALID,97.58,VALID,213.21,VALID,19.937,VALID,136.0,VALID,0.985,
2017-09-13, 07:43:06,VALID,918.889,VALID,0.0,VALID,97.633,VALID,213.147,VALID,20.022,VALID,123.0,VALID,0.729,
2017-09-13, 07:44:06,VALID,918.905,VALID,0.0,VALID,97.852,VALID,194.155,VALID,20.166,VALID,123.0,VALID,0.67,
2017-09-13, 07:45:06,VALID,918.912,VALID,0.0,VALID,97.687,VALID,199.482,VALID,20.188,VALID,142.0,VALID,1.026,
2017-09-13, 07:46:06,VALID,918.915,VALID,0.0,VALID,97.239,VALID,215.775,VALID,20.165,VALID,123.0,VALID,0.851,
2017-09-13, 07:47:06,VALID,918.915,VALID,0.0,VALID,97.457,VALID,230.609,VALID,20.285,VALID,108.0,VALID,0.86,
2017-09-13, 07:48:06,VALID,918.919,VALID,0.0,VALID,97.374,VALID,232.845,VALID,20.385,VALID,109.0,VALID,0.857,
2017-09-13, 07:49:06,VALID,918.916,VALID,0.0,VALID,97.505,VALID,307.892,VALID,20.526,VALID,126.0,VALID,0.714,
2017-09-13, 07:50:06,VALID,918.903,VALID,0.0,VALID,97.244,VALID,286.92,VALID,20.602,VALID,118.0,VALID,0.725,
2017-09-13, 07:51:06,VALID,918.899,VALID,0.0,VALID,96.695,VALID,372.287,VALID,20.673,VALID,115.0,VALID,0.807,
2017-09-13, 07:52:06,VALID,918.88,VALID,0.0,VALID,96.607,VALID,228.181,VALID,20.799,VALID,111.0,VALID,0.752,
2017-09-13, 07:53:06,VALID,918.886,VALID,0.0,VALID,95.971,VALID,212.919,VALID,20.823,VALID,134.0,VALID,1.127,
2017-09-13, 07:54:06,VALID,918.884,VALID,0.0,VALID,94.944,VALID,327.029,VALID,20.831,VALID,92.0,VALID,0.825,
2017-09-13, 07:55:06,VALID,918.896,VALID,0.0,VALID,95.207,VALID,353.166,VALID,20.919,VALID,124.0,VALID,1.144,
2017-09-13, 07:56:06,VALID,918.909,VALID,0.0,VALID,94.677,VALID,270.081,VALID,20.99,VALID,107.0,VALID,1.123,
2017-09-13, 07:57:06,VALID,918.917,VALID,0.0,VALID,94.351,VALID,312.942,VALID,21.017,VALID,118.0,VALID,1.523,
2017-09-13, 07:58:06,VALID,918.915,VALID,0.0,VALID,94.13,VALID,338.64,VALID,21.09,VALID,132.0,VALID,0.892,
2017-09-13, 07:59:06,VALID,918.905,VALID,0.0,VALID,94.026,VALID,250.681,VALID,21.18,VALID,131.0,VALID,0.973,
2017-09-13, 08:00:06,VALID,918.905,VALID,0.0,VALID,93.572,VALID,355.413,VALID,21.285,VALID,179.0,VALID,0.565,
2017-09-13, 08:01:06,VALID,918.896,VALID,0.0,VALID,91.899,VALID,294.477,VALID,21.307,VALID,153.0,VALID,0.769,
2017-09-13, 08:02:06,VALID,918.89,VALID,0.0,VALID,92.385,VALID,317.493,VALID,21.296,VALID,144.0,VALID,0.593,
2017-09-13, 08:03:06,VALID,918.883,VALID,0.0,VALID,92.223,VALID,416.492,VALID,21.328,VALID,145.0,VALID,1.045,
2017-09-13, 08:04:06,VALID,918.884,VALID,0.0,VALID,92.014,VALID,323.477,VALID,21.362,VALID,138.0,VALID,1.27,
2017-09-13, 08:05:06,VALID,918.876,VALID,0.0,VALID,91.785,VALID,269.801,VALID,21.351,VALID,144.0,VALID,1.428,
2017-09-13, 08:06:06,VALID,918.886,VALID,0.0,VALID,91.939,VALID,233.055,VALID,21.33,VALID,148.0,VALID,1.362,
2017-09-13, 08:07:06,VALID,918.879,VALID,0.0,VALID,92.181,VALID,255.943,VALID,21.334,VALID,161.0,VALID,0.948,
2017-09-13, 08:08:06,VALID,918.901,VALID,0.0,VALID,91.952,VALID,368.324,VALID,21.416,VALID,165.0,VALID,0.735,
2017-09-13, 08:09:06,VALID,918.911,VALID,0.0,VALID,91.778,VALID,345.059,VALID,21.539,VALID,156.0,VALID,0.635,
2017-09-13, 08:10:06,VALID,918.933,VALID,0.0,VALID,91.455,VALID,315.804,VALID,21.621,VALID,157.0,VALID,0.922,
2017-09-13, 08:11:06,VALID,918.945,VALID,0.0,VALID,91.465,VALID,318.62,VALID,21.725,VALID,160.0,VALID,0.774,
2017-09-13, 08:12:06,VALID,918.969,VALID,0.0,VALID,90.667,VALID,273.965,VALID,21.819,VALID,183.0,VALID,0.715,
2017-09-13, 08:13:06,VALID,918.985,VALID,0.0,VALID,89.877,VALID,399.547,VALID,21.88,VALID,153.0,VALID,0.88,
2017-09-13, 08:14:06,VALID,918.988,VALID,0.0,VALID,89.713,VALID,436.653,VALID,21.891,VALID,157.0,VALID,1.428,
2017-09-13, 08:15:06,VALID,918.983,VALID,0.0,VALID,89.059,VALID,420.891,VALID,21.91,VALID,152.0,VALID,1.368,
2017-09-13, 08:16:06,VALID,918.978,VALID,0.0,VALID,89.051,VALID,426.792,VALID,21.905,VALID,153.0,VALID,1.277,
2017-09-13, 08:17:06,VALID,918.965,VALID,0.0,VALID,89.108,VALID,416.602,VALID,21.935,VALID,154.0,VALID,1.425,
2017-09-13, 08:18:06,VALID,918.962,VALID,0.0,VALID,88.548,VALID,408.793,VALID,21.964,VALID,149.0,VALID,1.625,
2017-09-13, 08:19:06,VALID,918.953,VALID,0.0,VALID,88.743,VALID,379.44,VALID,21.995,VALID,162.0,VALID,1.236,
2017-09-13, 08:20:06,VALID,918.943,VALID,0.0,VALID,88.254,VALID,310.834,VALID,22.029,VALID,157.0,VALID,1.408,
2017-09-13, 08:21:06,VALID,918.936,VALID,0.0,VALID,87.547,VALID,343.634,VALID,21.935,VALID,145.0,VALID,1.799,
2017-09-13, 08:22:06,VALID,918.968,VALID,0.0,VALID,87.85,VALID,360.074,VALID,21.834,VALID,144.0,VALID,1.554,
2017-09-13, 08:23:06,VALID,918.964,VALID,0.0,VALID,88.471,VALID,389.046,VALID,21.863,VALID,146.0,VALID,1.345,
2017-09-13, 08:24:06,VALID,918.974,VALID,0.0,VALID,88.261,VALID,369.798,VALID,21.978,VALID,151.0,VALID,1.462,
2017-09-13, 08:25:06,VALID,918.979,VALID,0.0,VALID,87.055,VALID,385.39,VALID,22.072,VALID,138.0,VALID,1.735,
2017-09-13, 08:26:06,VALID,918.988,VALID,0.0,VALID,87.556,VALID,336.275,VALID,22.092,VALID,150.0,VALID,1.42,
2017-09-13, 08:27:06,VALID,918.973,VALID,0.0,VALID,87.595,VALID,301.387,VALID,22.178,VALID,153.0,VALID,0.948,
2017-09-13, 08:28:06,VALID,918.973,VALID,0.0,VALID,86.78,VALID,348.032,VALID,22.212,VALID,140.0,VALID,1.853,
2017-09-13, 08:29:06,VALID,918.976,VALID,0.0,VALID,87.357,VALID,413.171,VALID,22.168,VALID,128.0,VALID,1.171,
2017-09-13, 08:30:06,VALID,918.968,VALID,0.0,VALID,87.809,VALID,372.069,VALID,22.271,VALID,141.0,VALID,1.661,
2017-09-13, 08:31:06,VALID,918.975,VALID,0.0,VALID,86.889,VALID,381.764,VALID,22.317,VALID,152.0,VALID,1.001,
2017-09-13, 08:32:06,VALID,918.967,VALID,0.0,VALID,87.216,VALID,376.267,VALID,22.373,VALID,151.0,VALID,1.328,
2017-09-13, 08:33:06,VALID,918.993,VALID,0.0,VALID,87.078,VALID,368.842,VALID,22.451,VALID,156.0,VALID,1.488,
2017-09-13, 08:34:06,VALID,919.015,VALID,0.0,VALID,86.324,VALID,367.584,VALID,22.503,VALID,165.0,VALID,1.183,
2017-09-13, 08:35:06,VALID,919.029,VALID,0.0,VALID,85.996,VALID,391.226,VALID,22.567,VALID,154.0,VALID,1.61,
2017-09-13, 08:36:06,VALID,919.029,VALID,0.0,VALID,85.983,VALID,407.655,VALID,22.576,VALID,164.0,VALID,1.245,
2017-09-13, 08:37:06,VALID,919.037,VALID,0.0,VALID,85.46,VALID,403.152,VALID,22.653,VALID,174.0,VALID,0.684,
2017-09-13, 08:38:06,VALID,919.03,VALID,0.0,VALID,85.118,VALID,380.23,VALID,22.821,VALID,144.0,VALID,1.239,
2017-09-13, 08:39:06,VALID,919.02,VALID,0.0,VALID,84.836,VALID,371.277,VALID,22.808,VALID,147.0,VALID,1.434,
2017-09-13, 08:40:06,VALID,919.024,VALID,0.0,VALID,85.231,VALID,354.231,VALID,22.725,VALID,149.0,VALID,1.243,
2017-09-13, 08:41:06,VALID,919.032,VALID,0.0,VALID,85.619,VALID,277.387,VALID,22.641,VALID,168.0,VALID,1.098,
2017-09-13, 08:42:06,VALID,919.046,VALID,0.0,VALID,84.875,VALID,313.686,VALID,22.727,VALID,193.0,VALID,0.627,
2017-09-13, 08:43:06,VALID,919.048,VALID,0.0,VALID,84.622,VALID,347.161,VALID,22.778,VALID,189.0,VALID,0.573,
2017-09-13, 08:44:06,VALID,919.041,VALID,0.0,VALID,84.781,VALID,347.051,VALID,22.879,VALID,163.0,VALID,0.556,
2017-09-13, 08:45:06,VALID,919.044,VALID,0.0,VALID,84.141,VALID,320.232,VALID,22.932,VALID,183.0,VALID,0.648,
2017-09-13, 08:46:06,VALID,919.042,VALID,0.0,VALID,84.061,VALID,348.801,VALID,22.88,VALID,189.0,VALID,0.805,
2017-09-13, 08:47:06,VALID,919.055,VALID,0.0,VALID,85.123,VALID,363.846,VALID,22.85,VALID,148.0,VALID,1.059,
2017-09-13, 08:48:06,VALID,919.062,VALID,0.0,VALID,85.999,VALID,391.54,VALID,22.904,VALID,147.0,VALID,0.484,
2017-09-13, 08:49:06,VALID,919.066,VALID,0.0,VALID,84.449,VALID,414.68,VALID,23.013,VALID,142.0,VALID,1.507,
2017-09-13, 08:50:06,VALID,919.084,VALID,0.0,VALID,84.353,VALID,419.199,VALID,22.928,VALID,153.0,VALID,0.945,
2017-09-13, 08:51:06,VALID,919.111,VALID,0.0,VALID,85.038,VALID,423.48,VALID,22.968,VALID,187.0,VALID,0.603,
2017-09-13, 08:52:06,VALID,919.117,VALID,0.0,VALID,85.155,VALID,456.967,VALID,23.15,VALID,133.0,VALID,0.273,
2017-09-13, 08:53:06,VALID,919.128,VALID,0.0,VALID,84.137,VALID,477.959,VALID,23.336,VALID,267.0,VALID,0.487,
2017-09-13, 08:54:06,VALID,919.139,VALID,0.0,VALID,83.908,VALID,514.854,VALID,23.444,VALID,156.0,VALID,0.437,
2017-09-13, 08:55:06,VALID,919.148,VALID,0.0,VALID,82.992,VALID,537.118,VALID,23.684,VALID,225.0,VALID,0.762,
2017-09-13, 08:56:06,VALID,919.159,VALID,0.0,VALID,80.927,VALID,557.69,VALID,23.814,VALID,175.0,VALID,0.759,
2017-09-13, 08:57:06,VALID,919.169,VALID,0.0,VALID,81.224,VALID,559.192,VALID,23.941,VALID,170.0,VALID,0.572,
2017-09-13, 08:58:06,VALID,919.167,VALID,0.0,VALID,81.26,VALID,553.164,VALID,24.088,VALID,195.0,VALID,0.035,
2017-09-13, 08:59:06,VALID,919.166,VALID,0.0,VALID,80.577,VALID,558.434,VALID,24.404,VALID,281.0,VALID,0.372,
2017-09-13, 09:00:06,VALID,919.174,VALID,0.0,VALID,78.141,VALID,574.697,VALID,24.292,VALID,249.0,VALID,1.371,
2017-09-13, 09:01:06,VALID,919.178,VALID,0.0,VALID,79.26,VALID,576.354,VALID,23.69,VALID,250.0,VALID,0.89,
2017-09-13, 09:02:06,VALID,919.167,VALID,0.0,VALID,80.902,VALID,585.193,VALID,23.274,VALID,251.0,VALID,1.233,
2017-09-13, 09:03:06,VALID,919.154,VALID,0.0,VALID,82.968,VALID,607.402,VALID,23.007,VALID,252.0,VALID,0.812,
2017-09-13, 09:04:06,VALID,919.142,VALID,0.0,VALID,83.698,VALID,618.271,VALID,23.013,VALID,239.0,VALID,0.804,
2017-09-13, 09:05:06,VALID,919.138,VALID,0.0,VALID,82.621,VALID,618.303,VALID,23.153,VALID,225.0,VALID,0.596,
2017-09-13, 09:06:06,VALID,919.132,VALID,0.0,VALID,82.017,VALID,627.08,VALID,23.413,VALID,171.0,VALID,0.05,
2017-09-13, 09:07:06,VALID,919.13,VALID,0.0,VALID,81.363,VALID,629.84,VALID,23.79,VALID,92.0,VALID,0.05,
2017-09-13, 09:08:06,VALID,919.111,VALID,0.0,VALID,81.067,VALID,629.432,VALID,24.265,VALID,115.0,VALID,0.123,
2017-09-13, 09:09:06,VALID,919.089,VALID,0.0,VALID,78.043,VALID,628.163,VALID,24.48,VALID,289.0,VALID,0.58,
2017-09-13, 09:10:06,VALID,919.05,VALID,0.0,VALID,78.201,VALID,636.107,VALID,24.41,VALID,308.0,VALID,0.69,
2017-09-13, 09:11:06,VALID,919.041,VALID,0.0,VALID,79.79,VALID,634.112,VALID,24.262,VALID,283.0,VALID,0.547,
2017-09-13, 09:12:06,VALID,919.029,VALID,0.0,VALID,80.081,VALID,645.744,VALID,24.21,VALID,265.0,VALID,0.663,
2017-09-13, 09:13:06,VALID,919.008,VALID,0.0,VALID,80.334,VALID,651.988,VALID,24.271,VALID,273.0,VALID,0.63,
2017-09-13, 09:14:06,VALID,918.999,VALID,0.0,VALID,79.671,VALID,667.629,VALID,24.247,VALID,255.0,VALID,0.887,
2017-09-13, 09:15:06,VALID,918.996,VALID,0.0,VALID,80.223,VALID,637.713,VALID,24.186,VALID,266.0,VALID,0.582,
2017-09-13, 09:16:06,VALID,918.982,VALID,0.0,VALID,79.127,VALID,669.17,VALID,24.119,VALID,259.0,VALID,1.123,
2017-09-13, 09:17:06,VALID,918.966,VALID,0.0,VALID,78.797,VALID,674.758,VALID,23.88,VALID,256.0,VALID,0.877,
2017-09-13, 09:18:06,VALID,918.953,VALID,0.0,VALID,79.945,VALID,614.926,VALID,23.796,VALID,244.0,VALID,0.57,
2017-09-13, 09:19:06,VALID,918.948,VALID,0.0,VALID,79.219,VALID,686.987,VALID,23.913,VALID,259.0,VALID,0.818,
2017-09-13, 09:20:06,VALID,918.936,VALID,0.0,VALID,78.965,VALID,548.016,VALID,23.894,VALID,243.0,VALID,0.729,
2017-09-13, 09:21:06,VALID,918.929,VALID,0.0,VALID,79.226,VALID,560.568,VALID,23.908,VALID,244.0,VALID,0.311,
2017-09-13, 09:22:06,VALID,918.921,VALID,0.0,VALID,78.69,VALID,584.537,VALID,24.061,VALID,2.0,VALID,0.09,
2017-09-13, 09:23:06,VALID,918.919,VALID,0.0,VALID,78.143,VALID,695.963,VALID,24.334,VALID,133.0,VALID,0.223,
2017-09-13, 09:24:06,VALID,918.903,VALID,0.0,VALID,77.695,VALID,758.301,VALID,24.532,VALID,279.0,VALID,0.329,
2017-09-13, 09:25:06,VALID,918.886,VALID,0.0,VALID,77.846,VALID,734.112,VALID,24.7,VALID,316.0,VALID,0.521,
2017-09-13, 09:26:06,VALID,918.878,VALID,0.0,VALID,77.18,VALID,715.358,VALID,24.82,VALID,309.0,VALID,0.751,
2017-09-13, 09:27:06,VALID,918.866,VALID,0.0,VALID,75.921,VALID,709.476,VALID,24.786,VALID,289.0,VALID,0.473,
2017-09-13, 09:28:06,VALID,918.856,VALID,0.0,VALID,76.681,VALID,718.45,VALID,24.741,VALID,229.0,VALID,0.471,
2017-09-13, 09:29:06,VALID,918.868,VALID,0.0,VALID,76.218,VALID,731.292,VALID,24.776,VALID,281.0,VALID,0.727,
2017-09-13, 09:30:06,VALID,918.871,VALID,0.0,VALID,76.45,VALID,582.031,VALID,24.682,VALID,302.0,VALID,0.851,
2017-09-13, 09:31:06,VALID,918.878,VALID,0.0,VALID,77.277,VALID,741.135,VALID,24.625,VALID,278.0,VALID,0.73,
2017-09-13, 09:32:06,VALID,918.882,VALID,0.0,VALID,76.443,VALID,718.917,VALID,24.652,VALID,242.0,VALID,0.151,
2017-09-13, 09:33:06,VALID,918.874,VALID,0.0,VALID,77.395,VALID,570.463,VALID,24.92,VALID,243.0,VALID,0.039,
2017-09-13, 09:34:06,VALID,918.874,VALID,0.0,VALID,75.936,VALID,654.419,VALID,25.32,VALID,5.0,VALID,0.571,
2017-09-13, 09:35:06,VALID,918.872,VALID,0.0,VALID,74.725,VALID,178.83,VALID,25.585,VALID,13.0,VALID,0.227,
2017-09-13, 09:36:06,VALID,918.856,VALID,0.0,VALID,74.711,VALID,361.551,VALID,25.694,VALID,65.0,VALID,0.952,
2017-09-13, 09:37:06,VALID,918.87,VALID,0.0,VALID,73.338,VALID,230.492,VALID,25.447,VALID,93.0,VALID,1.244,
2017-09-13, 09:38:06,VALID,918.87,VALID,0.0,VALID,74.552,VALID,379.234,VALID,24.886,VALID,89.0,VALID,0.452,
2017-09-13, 09:39:06,VALID,918.875,VALID,0.0,VALID,75.827,VALID,428.615,VALID,24.737,VALID,88.0,VALID,0.276,
2017-09-13, 09:40:06,VALID,918.89,VALID,0.0,VALID,76.803,VALID,247.831,VALID,24.725,VALID,66.0,VALID,0.433,
2017-09-13, 09:41:06,VALID,918.882,VALID,0.0,VALID,76.817,VALID,431.814,VALID,24.826,VALID,12.0,VALID,0.984,
2017-09-13, 09:42:06,VALID,918.871,VALID,0.0,VALID,76.358,VALID,218.39,VALID,24.806,VALID,12.0,VALID,1.066,
2017-09-13, 09:43:06,VALID,918.87,VALID,0.0,VALID,76.576,VALID,226.37,VALID,24.757,VALID,360.0,VALID,0.701,
2017-09-13, 09:44:06,VALID,918.866,VALID,0.0,VALID,76.337,VALID,552.535,VALID,24.728,VALID,342.0,VALID,0.187,
2017-09-13, 09:45:06,VALID,918.85,VALID,0.0,VALID,76.431,VALID,382.905,VALID,24.95,VALID,354.0,VALID,0.186,
2017-09-13, 09:46:06,VALID,918.841,VALID,0.0,VALID,75.9,VALID,205.253,VALID,25.195,VALID,29.0,VALID,0.33,
2017-09-13, 09:47:06,VALID,918.844,VALID,0.0,VALID,76.056,VALID,200.497,VALID,25.347,VALID,97.0,VALID,0.095,
2017-09-13, 09:48:06,VALID,918.85,VALID,0.0,VALID,75.736,VALID,216.352,VALID,25.394,VALID,31.0,VALID,0.417,
2017-09-13, 09:49:06,VALID,918.853,VALID,0.0,VALID,75.703,VALID,258.515,VALID,25.339,VALID,277.0,VALID,0.584,
2017-09-13, 09:50:06,VALID,918.863,VALID,0.0,VALID,74.773,VALID,353.128,VALID,25.204,VALID,297.0,VALID,0.128,
2017-09-13, 09:51:06,VALID,918.88,VALID,0.0,VALID,74.946,VALID,403.46,VALID,25.181,VALID,290.0,VALID,0.049,
2017-09-13, 09:52:06,VALID,918.883,VALID,0.0,VALID,75.583,VALID,302.803,VALID,25.234,VALID,321.0,VALID,0.08,
2017-09-13, 09:53:06,VALID,918.882,VALID,0.0,VALID,75.407,VALID,228.002,VALID,25.327,VALID,317.0,VALID,0.054,
2017-09-13, 09:54:06,VALID,918.887,VALID,0.0,VALID,75.257,VALID,219.764,VALID,25.37,VALID,290.0,VALID,0.259,
2017-09-13, 09:55:06,VALID,918.893,VALID,0.0,VALID,76.509,VALID,224.121,VALID,25.246,VALID,248.0,VALID,0.701,
2017-09-13, 09:56:06,VALID,918.879,VALID,0.0,VALID,76.209,VALID,279.104,VALID,25.011,VALID,267.0,VALID,0.645,
2017-09-13, 09:57:06,VALID,918.858,VALID,0.0,VALID,77.455,VALID,248.296,VALID,24.799,VALID,245.0,VALID,0.371,
2017-09-13, 09:58:06,VALID,918.865,VALID,0.0,VALID,77.876,VALID,247.727,VALID,24.806,VALID,241.0,VALID,0.529,
2017-09-13, 09:59:06,VALID,918.846,VALID,0.0,VALID,78.266,VALID,252.378,VALID,24.762,VALID,250.0,VALID,0.685,
2017-09-13, 10:00:06,VALID,918.844,VALID,0.0,VALID,78.301,VALID,282.351,VALID,24.608,VALID,251.0,VALID,0.586,
2017-09-13, 10:01:06,VALID,918.827,VALID,0.0,VALID,79.074,VALID,499.457,VALID,24.553,VALID,280.0,VALID,0.092,
2017-09-13, 10:02:06,VALID,918.803,VALID,0.0,VALID,78.571,VALID,963.425,VALID,24.737,VALID,288.0,VALID,0.028,
2017-09-13, 10:03:06,VALID,918.801,VALID,0.0,VALID,77.952,VALID,764.542,VALID,24.978,VALID,287.0,VALID,0.447,
2017-09-13, 10:04:06,VALID,918.781,VALID,0.0,VALID,76.613,VALID,548.128,VALID,25.014,VALID,290.0,VALID,0.241,
2017-09-13, 10:05:06,VALID,918.768,VALID,0.0,VALID,77.813,VALID,322.302,VALID,25.074,VALID,260.0,VALID,0.147,
2017-09-13, 10:06:06,VALID,918.772,VALID,0.0,VALID,77.383,VALID,662.524,VALID,25.231,VALID,300.0,VALID,0.601,
2017-09-13, 10:07:06,VALID,918.78,VALID,0.0,VALID,77.178,VALID,304.433,VALID,25.337,VALID,310.0,VALID,0.536,
2017-09-13, 10:08:06,VALID,918.788,VALID,0.0,VALID,76.583,VALID,285.714,VALID,25.381,VALID,326.0,VALID,0.289,
2017-09-13, 10:09:06,VALID,918.761,VALID,0.0,VALID,75.721,VALID,385.034,VALID,25.41,VALID,336.0,VALID,0.139,
2017-09-13, 10:10:06,VALID,918.763,VALID,0.0,VALID,74.8,VALID,665.949,VALID,25.439,VALID,250.0,VALID,0.519,
2017-09-13, 10:11:06,VALID,918.76,VALID,0.0,VALID,74.654,VALID,483.59,VALID,25.417,VALID,263.0,VALID,0.499,
2017-09-13, 10:12:06,VALID,918.734,VALID,0.0,VALID,74.921,VALID,286.231,VALID,25.416,VALID,242.0,VALID,0.433,
2017-09-13, 10:13:06,VALID,918.726,VALID,0.0,VALID,75.364,VALID,285.535,VALID,25.478,VALID,330.0,VALID,0.173,
2017-09-13, 10:14:06,VALID,918.719,VALID,0.0,VALID,74.044,VALID,320.634,VALID,25.579,VALID,251.0,VALID,0.714,
2017-09-13, 10:15:06,VALID,918.709,VALID,0.0,VALID,73.403,VALID,241.728,VALID,25.442,VALID,301.0,VALID,0.304,
2017-09-13, 10:16:06,VALID,918.694,VALID,0.0,VALID,74.956,VALID,239.758,VALID,25.398,VALID,333.0,VALID,0.243,
2017-09-13, 10:17:06,VALID,918.686,VALID,0.0,VALID,74.537,VALID,240.137,VALID,25.443,VALID,320.0,VALID,0.09,
2017-09-13, 10:18:06,VALID,918.695,VALID,0.0,VALID,73.432,VALID,234.227,VALID,25.434,VALID,255.0,VALID,0.415,
2017-09-13, 10:19:06,VALID,918.705,VALID,0.0,VALID,73.264,VALID,226.226,VALID,25.296,VALID,255.0,VALID,0.019,
2017-09-13, 10:20:06,VALID,918.705,VALID,0.0,VALID,74.948,VALID,226.495,VALID,25.353,VALID,265.0,VALID,0.467,
2017-09-13, 10:21:06,VALID,918.711,VALID,0.0,VALID,73.924,VALID,238.774,VALID,25.375,VALID,302.0,VALID,0.682,
2017-09-13, 10:22:06,VALID,918.719,VALID,0.0,VALID,73.438,VALID,256.865,VALID,25.354,VALID,279.0,VALID,0.654,
2017-09-13, 10:23:06,VALID,918.722,VALID,0.0,VALID,72.5,VALID,288.873,VALID,25.227,VALID,262.0,VALID,0.632,
2017-09-13, 10:24:06,VALID,918.718,VALID,0.0,VALID,73.369,VALID,492.087,VALID,25.13,VALID,282.0,VALID,0.846,
2017-09-13, 10:25:06,VALID,918.719,VALID,0.0,VALID,69.348,VALID,289.605,VALID,25.109,VALID,273.0,VALID,0.195,
2017-09-13, 10:26:06,VALID,918.714,VALID,0.0,VALID,71.664,VALID,292.493,VALID,25.233,VALID,269.0,VALID,0.152,
2017-09-13, 10:27:06,VALID,918.701,VALID,0.0,VALID,72.42,VALID,302.618,VALID,25.392,VALID,294.0,VALID,0.043,
2017-09-13, 10:28:06,VALID,918.671,VALID,0.0,VALID,72.018,VALID,352.539,VALID,25.561,VALID,302.0,VALID,0.154,
2017-09-13, 10:29:06,VALID,918.67,VALID,0.0,VALID,72.935,VALID,803.934,VALID,25.64,VALID,272.0,VALID,0.285,
2017-09-13, 10:30:06,VALID,918.641,VALID,0.0,VALID,73.444,VALID,941.195,VALID,25.666,VALID,246.0,VALID,0.496,
2017-09-13, 10:31:06,VALID,918.628,VALID,0.0,VALID,73.794,VALID,952.03,VALID,25.645,VALID,255.0,VALID,0.553,
2017-09-13, 10:32:06,VALID,918.611,VALID,0.0,VALID,74.824,VALID,676.196,VALID,25.734,VALID,268.0,VALID,0.488,
2017-09-13, 10:33:06,VALID,918.605,VALID,0.0,VALID,72.853,VALID,906.209,VALID,25.842,VALID,250.0,VALID,0.859,
2017-09-13, 10:34:06,VALID,918.581,VALID,0.0,VALID,71.304,VALID,890.067,VALID,25.841,VALID,123.0,VALID,0.355,
2017-09-13, 10:35:06,VALID,918.568,VALID,0.0,VALID,71.232,VALID,879.92,VALID,25.974,VALID,104.0,VALID,0.252,